This is the latest recevied weather packets stored in our database for station/object KA1JKB. If no packets are shown the sender has not sent any weather packets the latest 10 day(s).
| Time | Temp. | Humidity | Pressure | Rain* | Wind** | Luminosity | Snow |
|---|---|---|---|---|---|---|---|
| 1777518624 | 6.67° C | 99% | 1010.4 hPa | 1.78 mm | - | 0 W/m² | - |
| 1777518321 | 6.67° C | 99% | 1010.4 hPa | 1.78 mm | - | 0 W/m² | - |
| 1777518016 | 6.67° C | 99% | 1010.4 hPa | 0 mm | - | 0 W/m² | - |
| 1777517713 | 6.67° C | 99% | 1010.4 hPa | 0 mm | - | 0 W/m² | - |
| 1777517409 | 6.67° C | 99% | 1010.5 hPa | 1.27 mm | - | 0 W/m² | - |
| 1777517109 | 6.67° C | 99% | 1010.6 hPa | 1.27 mm | - | 0 W/m² | - |
| 1777516806 | 6.67° C | 99% | 1010.3 hPa | 0 mm | - | 0 W/m² | - |
| 1777516502 | 6.67° C | 99% | 1010.4 hPa | 0 mm | - | 0 W/m² | - |
| 1777516197 | 6.67° C | 99% | 1010.4 hPa | 0 mm | - | 0 W/m² | - |
| 1777515895 | 6.67° C | 99% | 1010.3 hPa | 0 mm | - | 0 W/m² | - |
| 1777515591 | 6.67° C | 99% | 1010.3 hPa | 0 mm | - | 0 W/m² | - |
| 1777515288 | 6.67° C | 99% | 1010.3 hPa | 0 mm | - | 0 W/m² | - |
| 1777514984 | 6.67° C | 99% | 1010.2 hPa | 1.78 mm | - | 0 W/m² | - |
| 1777514681 | 6.67° C | 99% | 1010.2 hPa | 1.78 mm | - | 0 W/m² | - |
| 1777514378 | 6.67° C | 99% | 1010 hPa | 0 mm | - | 0 W/m² | - |
| 1777514074 | 6.67° C | 99% | 1009.9 hPa | 1.27 mm | - | 0 W/m² | - |
| 1777513772 | 6.67° C | 99% | 1010 hPa | 1.27 mm | - | 0 W/m² | - |
| 1777513469 | 6.67° C | 99% | 1009.7 hPa | 1.78 mm | - | 0 W/m² | - |
| 1777513166 | 6.67° C | 99% | 1009.9 hPa | 1.78 mm | - | 0 W/m² | - |
| 1777512861 | 6.67° C | 99% | 1009.8 hPa | 1.78 mm | - | 0 W/m² | - |
| 1777512558 | 7.22° C | 99% | 1009.6 hPa | 0 mm | - | 0 W/m² | - |
| 1777512255 | 7.22° C | 99% | 1009.4 hPa | 1.27 mm | - | 0 W/m² | - |
| 1777511952 | 7.22° C | 99% | 1009.6 hPa | 1.27 mm | - | 0 W/m² | - |
| 1777511650 | 7.22° C | 99% | 1009.3 hPa | 0 mm | - | 0 W/m² | - |
| 1777511348 | 7.22° C | 99% | 1009.4 hPa | 1.78 mm | - | 0 W/m² | - |
* Rain latest hour (hover to see other rain measurements)
** Current wind speed in m/s (hover to see current wind gust speed)